Wind_Speed
23 23 22 21 19 17 16 15 14 12 11 10 9 8 7 7 6 5 5 5 5 5 5 5 6 6 6 6 6 6 7 7 7 8 8 9 9 9 9 10 10 11 11
25 25 24 23 22 21 19 18 16 15 14 13 11 10 9 8 8 8 7 7 6 6 6 6 7 7 8 8 8 8 8 8 9 9 9 10 10 10 11 11 12 12 12
25 25 25 25 24 23 22 20 19 18 16 15 14 13 12 11 10 10 10 9 9 8 8 8 8 9 9 9 9 10 10 10 10 11 11 11 11 12 12 13 13 14 14
26 26 26 26 25 24 23 22 21 20 19 18 17 16 15 14 12 12 11 11 11 11 10 10 10 10 10 10 10 11 11 12 12 12 12 13 13 14 14 15 15 15 16
27 26 26 26 26 25 24 23 22 22 21 20 18 18 17 16 15 14 14 13 13 13 13 12 12 12 12 12 12 12 13 13 13 14 14 15 15 16 16 16 16 16 17
27 26 26 26 26 26 25 24 24 23 22 21 20 20 19 18 18 17 16 16 15 15 15 15 14 14 14 14 14 14 14 15 15 16 16 16 17 17 17 17 17 18 18
28 27 27 27 26 26 26 25 25 25 24 23 22 22 21 20 20 19 18 18 18 18 17 17 17 16 16 16 16 16 16 17 17 17 18 18 18 19 19 19 19 19 20
29 29 29 28 28 27 27 26 26 26 26 25 25 24 23 22 21 21 21 21 20 20 20 19 19 18 18 18 18 18 18 18 19 19 19 19 20 20 20 20 21 21 21
31 30 30 30 30 30 29 29 28 28 28 27 27 26 25 24 23 23 23 23 23 22 21 21 21 21 21 21 21 21 20 21 21 21 21 21 21 21 22 22 22 22 23
33 32 32 32 31 31 31 31 30 30 30 29 29 28 28 27 26 26 25 25 25 25 24 24 23 23 23 23 23 23 22 22 22 22 23 23 23 23 23 24 24 24 24
34 34 34 33 33 33 33 32 32 32 32 31 31 31 30 29 28 28 27 27 26 26 26 26 26 26 25 25 25 25 25 24 25 25 25 24 24 24 25 25 25 25 26
36 36 36 35 35 35 35 34 34 33 33 33 33 32 32 31 30 30 29 28 28 28 28 28 28 28 27 27 27 27 26 26 26 26 26 26 26 25 25 26 26 26 27
37 37 37 37 37 36 37 37 36 36 35 34 34 34 33 33 32 32 31 30 30 30 29 29 29 29 29 29 29 28 28 27 27 27 27 27 27 27 27 27 27 28 28
37 37 37 37 38 38 38 38 38 38 37 37 37 36 35 35 34 34 34 33 32 32 31 31 31 31 30 30 30 29 29 29 28 28 28 28 28 29 29 29 29 30 30
38 39 39 39 39 39 39 39 39 39 39 38 38 38 38 37 37 36 36 35 35 34 33 33 33 32 32 31 31 31 31 30 30 30 30 30 30 30 31 31 31 31 32
40 40 40 40 40 40 40 40 40 40 40 40 40 40 39 39 39 38 38 38 37 36 36 35 34 34 33 33 33 33 33 33 32 32 32 32 32 33 33 33 33 33 34
41 41 41 41 41 41 40 40 40 40 40 41 40 41 41 40 40 40 40 39 39 38 38 37 37 36 36 35 35 35 35 34 34 34 34 34 34 35 35 35 35 35 35
42 42 42 42 42 42 41 41 40 40 41 41 41 41 41 41 42 41 41 41 41 41 40 40 40 40 39 38 38 37 37 36 36 36 35 35 36 36 37 37 37 37 37
42 42 42 42 41 41 41 41 41 41 41 41 41 41 42 42 43 43 42 42 42 42 42 42 42 41 41 40 40 40 39 38 37 38 37 38 37 37 38 38 38 38 38
41 41 41 41 41 41 41 42 42 42 41 41 41 42 43 43 44 44 43 43 42 42 42 43 43 42 42 42 42 42 41 40 40 40 40 40 39 39 38 39 39 39 39
38 39 40 40 40 41 41 42 42 42 42 42 43 44 43 43 43 42 42 42 43 43 43 44 44 44 44 44 43 43 41 41 41 41 41 41 41 41 40 40 40 40 40
38 38 39 40 40 41 41 41 42 43 43 43 43 44 44 43 43 43 42 42 42 43 44 44 45 44 44 44 43 43 43 42 42 41 41 41 41 41 41 41 42 42 42
37 38 39 39 39 40 40 40 41 41 41 41 42 42 43 43 44 44 44 43 43 43 43 44 43 44 45 45 44 45 44 43 42 43 42 42 42 43 42 42 43 43 43
37 37 37 38 38 39 39 39 39 39 40 40 40 40 41 42 43 43 44 45 45 44 43 43 43 44 44 44 44 45 45 44 43 42 42 42 41 41 41 42 43 42 43
35 35 36 36 37 37 38 38 38 37 38 38 39 38 39 40 41 41 42 43 44 44 43 43 43 43 44 44 44 44 45 44 43 43 42 41 41 42 43 42 42 42 42
34 34 35 36 36 36 36 36 36 36 37 37 38 38 37 37 39 40 40 41 42 42 42 41 42 42 42 42 43 43 44 44 45 45 44 43 43 43 43 44 43 42 42
Wind_Direction
240 241 242 244 245 246 247 248 246 244 245 248 251 252 256 260 264 270 278 283 288 292 292 297 301 297 297 298 296 295 296 297 296 298 301 302 303 305 308 311 314 316 317
241 242 243 244 244 246 247 248 248 246 247 248 250 251 254 259 262 265 270 275 279 284 287 288 291 292 290 291 291 290 290 292 293 294 297 299 299 299 301 304 307 309 310
242 242 242 243 244 245 246 247 249 248 247 248 249 252 254 257 261 265 266 269 273 276 280 282 284 288 288 286 286 288 289 289 290 291 293 295 296 297 299 300 302 304 306
241 240 240 241 242 243 244 245 246 247 247 247 248 251 254 256 259 263 265 267 270 273 275 278 280 283 286 287 286 286 286 287 288 288 290 291 293 294 296 298 299 301 302
239 239 239 240 241 242 243 244 244 245 246 247 249 250 253 255 257 261 263 266 270 272 273 275 277 280 282 285 287 286 286 286 286 287 287 288 290 292 293 294 296 298 300
238 238 238 239 240 241 243 244 244 245 246 247 249 249 252 255 256 259 262 265 269 271 273 274 274 276 278 280 283 286 285 285 285 286 286 287 288 290 291 292 294 296 298
239 239 239 240 241 242 244 245 245 246 247 249 250 250 251 254 255 257 261 265 267 270 273 273 273 273 275 277 279 282 284 283 284 285 287 287 288 288 289 291 292 294 296
240 240 241 241 242 243 244 245 247 248 248 249 251 252 252 253 255 257 260 263 266 269 271 272 272 271 273 276 278 279 280 282 283 284 285 286 287 288 288 290 291 292 294
242 242 242 243 244 245 245 246 248 249 250 250 251 252 253 254 255 257 259 262 264 267 269 271 271 271 272 274 276 277 278 279 281 284 284 285 286 287 287 288 289 290 292
243 244 244 245 246 247 247 247 248 250 251 252 252 253 254 255 255 257 259 261 263 265 267 269 270 271 273 274 274 276 277 278 280 283 284 285 286 287 288 288 288 289 291
244 245 245 246 247 248 249 249 249 250 252 252 252 253 254 255 256 257 258 260 262 265 268 268 268 269 271 272 273 274 276 277 279 281 283 284 285 286 287 287 287 288 290
246 246 247 247 248 249 250 251 251 252 252 253 253 253 253 254 256 257 258 260 262 265 268 268 268 269 270 271 272 274 276 277 278 280 281 283 283 284 286 287 287 288 290
247 248 249 249 249 250 251 252 252 253 252 252 253 253 253 255 256 257 258 259 261 264 267 268 268 268 269 270 272 273 275 277 278 280 280 282 282 283 284 286 287 288 290
248 249 250 250 251 251 252 252 253 253 253 253 253 254 255 255 256 257 258 259 261 263 265 267 269 268 268 269 271 273 274 276 277 279 280 280 281 282 284 285 286 287 288
248 249 250 250 252 253 252 252 252 253 253 253 253 254 255 255 255 256 257 259 260 262 264 266 268 268 267 268 269 271 273 274 275 278 280 280 281 282 284 284 285 285 286
249 250 250 251 252 252 253 253 253 253 253 253 254 254 254 255 255 256 256 258 259 261 262 264 266 267 267 268 269 270 271 273 276 277 279 280 281 281 282 283 284 284 285
250 250 251 251 252 252 253 253 253 253 253 253 253 254 254 255 256 255 256 257 258 259 260 262 263 265 266 268 269 270 271 273 275 276 278 280 281 281 282 283 283 284 285
251 251 251 251 252 252 252 253 253 253 254 254 253 253 254 254 255 255 256 256 257 258 259 260 263 264 265 267 269 270 271 272 273 275 277 280 281 281 281 281 282 284 284
253 252 252 252 252 252 252 253 253 253 253 254 254 254 254 254 254 255 255 256 257 259 259 260 262 263 265 266 267 269 270 271 272 274 277 279 281 282 281 282 283 284 284
253 253 253 253 252 252 252 252 253 253 254 254 254 254 255 255 254 255 255 256 258 259 259 260 261 262 265 265 267 268 269 270 272 274 276 278 280 282 282 283 284 284 284
253 254 254 254 253 253 253 253 253 252 253 254 255 255 255 254 254 254 255 256 257 258 259 260 260 261 263 265 267 267 267 268 271 273 275 276 278 280 280 281 282 283 284
253 254 254 254 254 254 254 254 253 253 253 254 255 254 255 254 255 255 256 257 258 258 259 259 261 262 263 264 266 267 268 269 270 272 274 276 277 278 280 281 281 283 284
253 254 254 254 254 253 253 254 254 254 254 254 254 253 253 253 253 255 255 256 258 259 259 260 261 262 262 264 264 266 267 267 268 269 271 274 276 277 279 280 281 283 283
253 253 253 253 253 253 254 255 255 254 253 253 253 252 253 253 254 255 255 256 257 258 259 261 261 262 262 263 264 265 266 267 268 269 270 272 275 277 279 281 282 282 283
253 253 253 253 253 254 255 255 254 254 253 254 253 253 254 254 254 255 256 256 256 257 259 261 263 264 263 263 265 266 266 266 267 269 270 273 276 278 280 283 283 282 283
253 254 255 254 254 254 254 254 254 255 255 255 254 254 255 256 256 257 258 258 257 257 259 261 263 263 263 264 265 265 266 267 268 270 271 273 275 278 280 282 283 283 285
Height
5853 5854 5856 5858 5860 5861 5862 5864 5865 5866 5867 5868 5869 5870 5871 5872 5872 5873 5874 5874 5875 5875 5876 5876 5876 5877 5877 5877 5877 5877 5877 5878 5878 5878 5878 5878 5877 5877 5877 5876 5876 5875 5875
5849 5851 5853 5854 5856 5858 5860 5861 5862 5864 5865 5866 5867 5868 5869 5870 5871 5872 5872 5873 5873 5874 5874 5875 5875 5875 5875 5876 5876 5876 5876 5876 5876 5876 5876 5876 5876 5876 5875 5875 5874 5874 5873
5845 5847 5849 5851 5852 5854 5856 5858 5859 5861 5862 5864 5865 5866 5867 5868 5869 5870 5870 5871 5872 5872 5873 5873 5873 5874 5874 5874 5874 5874 5874 5875 5875 5875 5875 5874 5874 5874 5874 5873 5872 5872 5871
5840 5842 5844 5846 5848 5850 5852 5854 5856 5858 5859 5860 5862 5863 5864 5865 5866 5867 5868 5869 5870 5870 5871 5871 5871 5872 5872 5872 5872 5872 5873 5873 5873 5873 5873 5872 5872 5872 5871 5871 5870 5870 5869
5835 5837 5840 5842 5844 5846 5848 5850 5852 5854 5855 5857 5858 5860 5861 5862 5863 5865 5865 5866 5867 5868 5868 5869 5869 5869 5870 5870 5870 5870 5870 5870 5870 5870 5870 5870 5870 5869 5869 5868 5868 5867 5866
5830 5833 5835 5837 5840 5842 5844 5846 5848 5850 5851 5853 5855 5856 5857 5859 5860 5861 5862 5863 5864 5865 5865 5866 5866 5867 5867 5867 5868 5868 5868 5868 5868 5867 5867 5867 5867 5866 5866 5865 5865 5864 5863
5826 5828 5830 5833 5835 5837 5840 5842 5844 5845 5847 5849 5851 5852 5854 5855 5856 5858 5859 5860 5861 5861 5862 5862 5863 5864 5864 5864 5865 5865 5865 5864 5864 5864 5864 5864 5864 5863 5863 5862 5861 5861 5860
5820 5823 5825 5828 5830 5833 5835 5837 5839 5841 5843 5844 5846 5848 5849 5851 5852 5854 5855 5856 5857 5858 5858 5859 5859 5860 5860 5861 5861 5861 5861 5861 5861 5861 5861 5860 5860 5860 5859 5859 5858 5857 5856
5814 5817 5820 5822 5825 5827 5829 5832 5834 5836 5838 5839 5841 5843 5845 5846 5848 5849 5850 5852 5852 5853 5854 5855 5855 5856 5856 5857 5857 5857 5857 5857 5857 5857 5857 5857 5856 5856 5855 5855 5854 5853 5852
5809 5811 5814 5816 5819 5821 5824 5826 5828 5830 5832 5834 5836 5838 5839 5841 5843 5844 5846 5847 5848 5849 5850 5850 5851 5852 5852 5852 5853 5853 5853 5853 5853 5853 5853 5852 5852 5852 5851 5850 5850 5849 5848
5802 5805 5808 5810 5813 5815 5818 5820 5822 5824 5826 5828 5830 5832 5834 5836 5837 5839 5840 5842 5843 5844 5844 5845 5846 5847 5847 5848 5848 5848 5848 5849 5849 5848 5848 5848 5847 5847 5846 5846 5845 5844 5843
5796 5798 5801 5804 5806 5809 5811 5813 5816 5818 5820 5822 5824 5826 5828 5830 5831 5833 5835 5836 5837 5838 5839 5840 5841 5841 5842 5842 5843 5843 5843 5844 5844 5843 5843 5843 5842 5842 5841 5841 5840 5839 5838
5789 5791 5794 5797 5799 5802 5804 5806 5809 5811 5813 5815 5817 5819 5821 5823 5825 5827 5828 5830 5831 5832 5833 5834 5835 5836 5836 5837 5837 5838 5838 5838 5838 5838 5838 5837 5837 5836 5836 5835 5835 5834 5833
5782 5784 5787 5789 5792 5794 5797 5799 5801 5803 5806 5808 5810 5812 5814 5816 5818 5820 5822 5823 5825 5826 5827 5828 5829 5829 5830 5831 5831 5832 5832 5832 5832 5832 5832 5832 5831 5831 5830 5829 5829 5828 5827
5774 5777 5779 5781 5784 5786 5789 5791 5793 5795 5797 5800 5802 5804 5806 5809 5811 5813 5815 5816 5818 5819 5820 5821 5822 5823 5824 5824 5825 5825 5826 5826 5826 5826 5826 5826 5825 5824 5824 5823 5822 5822 5821
5766 5768 5771 5773 5775 5778 5780 5782 5784 5787 5789 5791 5793 5796 5798 5800 5802 5805 5807 5809 5811 5812 5813 5814 5815 5816 5817 5818 5818 5819 5819 5819 5820 5819 5819 5819 5818 5818 5817 5816 5816 5815 5814
5757 5760 5762 5764 5767 5769 5771 5773 5776 5778 5780 5783 5785 5787 5789 5792 5794 5796 5799 5801 5802 5804 5805 5806 5808 5809 5810 5810 5811 5812 5812 5812 5812 5812 5812 5812 5811 5811 5810 5809 5808 5808 5807
5749 5751 5753 5755 5758 5760 5762 5765 5767 5769 5771 5774 5776 5778 5780 5783 5785 5787 5790 5792 5793 5795 5797 5798 5800 5801 5802 5802 5803 5804 5804 5805 5805 5805 5805 5804 5804 5803 5802 5802 5801 5800 5799
5739 5741 5744 5746 5748 5751 5753 5756 5758 5760 5763 5765 5767 5769 5771 5774 5776 5778 5781 5783 5785 5786 5788 5790 5791 5792 5793 5794 5795 5795 5796 5796 5797 5797 5797 5797 5796 5795 5794 5794 5793 5792 5791
5731 5733 5735 5737 5739 5741 5743 5746 5749 5751 5754 5756 5758 5760 5762 5764 5767 5769 5772 5774 5776 5777 5779 5781 5782 5783 5784 5785 5786 5786 5787 5788 5788 5789 5789 5788 5788 5787 5786 5785 5785 5784 5782
5722 5724 5726 5728 5730 5732 5734 5737 5739 5742 5744 5747 5749 5751 5752 5754 5757 5759 5762 5764 5766 5768 5769 5771 5772 5774 5775 5776 5776 5777 5778 5779 5780 5780 5780 5780 5779 5778 5778 5777 5776 5775 5774
5714 5716 5718 5720 5721 5723 5725 5727 5730 5732 5735 5737 5739 5741 5743 5745 5747 5749 5752 5754 5756 5757 5759 5761 5762 5764 5765 5766 5767 5768 5769 5770 5771 5771 5771 5770 5770 5769 5769 5768 5767 5766 5764
5706 5707 5709 5711 5713 5714 5716 5719 5720 5722 5725 5727 5729 5731 5732 5734 5737 5740 5742 5745 5746 5747 5749 5751 5752 5754 5755 5756 5757 5758 5759 5761 5761 5762 5762 5761 5761 5760 5759 5758 5757 5756 5754
5698 5699 5701 5703 5704 5706 5708 5710 5712 5713 5715 5717 5719 5720 5722 5724 5727 5729 5732 5734 5736 5737 5739 5741 5742 5743 5745 5746 5747 5748 5749 5750 5751 5752 5753 5752 5751 5751 5750 5748 5747 5745 5743
5690 5692 5693 5695 5696 5698 5699 5701 5703 5704 5706 5708 5709 5711 5713 5715 5717 5720 5722 5724 5726 5728 5729 5730 5732 5733 5735 5736 5737 5738 5738 5739 5740 5741 5743 5743 5742 5741 5739 5738 5736 5734 5732
5683 5684 5685 5687 5688 5690 5691 5693 5694 5696 5697 5699 5701 5703 5704 5706 5708 5711 5713 5714 5716 5718 5719 5721 5722 5723 5725 5726 5727 5728 5729 5730 5731 5731 5732 5733 5732 5731 5729 5728 5726 5724 5721